This demonstration page uses our WeatherBlox Daily Observations layout. Learn more.

Left ArrowRight Arrow

Hourly Observations for August 8, 2022

Temp ( °F °C ) Dew Point ( °F °C ) Humidity (%) Winds ( mph kmh ) Pressure ( in mb ) Visibility ( mi km ) Precip ( " mm )
12:52 am 00:52 Clear 80 26.7 71 21.7 74 74 S 9 15 30.02 1017 10 16 0.00 0.00
1:52 am 01:52 Clear 79 26.1 71 21.7 77 77 S 10 17 30.01 1016 10 16 0.00 0.00
2:52 am 02:52 Clear 79 26.1 71 21.7 77 77 SSE 12 19 29.99 1016 10 16 0.00 0.00
3:52 am 03:52 Clear 78 25.6 71 21.7 79 79 S 10 17 29.99 1016 10 16 0.00 0.00
4:52 am 04:52 Clear 76 24.4 71 21.7 85 85 S 7 11 30.00 1016 10 16 0.00 0.00
5:52 am 05:52 Clear 75 23.9 71 21.7 88 88 S 8 13 30.01 1016 10 16 0.00 0.00
6:52 am 06:52 Sunny 75 23.9 71 21.7 88 88 S 7 11 30.02 1017 10 16 0.00 0.00
7:52 am 07:52 Sunny 80 26.7 71 21.7 74 74 SSW 9 15 30.01 1016 10 16 0.00 0.00
8:52 am 08:52 Sunny 84 28.9 70 21.1 63 63 SSW 14 22 30.02 1017 10 16 0.00 0.00
9:52 am 09:52 Sunny 88 31.1 70 21.1 55 55 SW 13 20 30.02 1017 10 16 0.00 0.00
10:52 am 10:52 Partly Cloudy 89 31.7 69 20.6 52 52 SW 14 22 30.01 1016 10 16 0.00 0.00
11:52 am 11:52 Mostly Cloudy 92 33.3 69 20.6 47 47 WSW 10 17 30.01 1016 10 16 0.00 0.00
12:52 pm 12:52 Partly Cloudy 95 35 69 20.6 43 43 W 10 17 30.00 1016 10 16 0.00 0.00
1:52 pm 13:52 Mostly Sunny 92 33.3 69 20.6 47 47 SW 6 9 29.97 1015 10 16 0.00 0.00
2:52 pm 14:52 Sunny 93 33.9 68 20 44 44 SW 9 15 29.94 1014 10 16 0.00 0.00
3:52 pm 15:52 Partly Cloudy 94 34.4 68 20 43 43 SSW 9 15 29.91 1013 10 16 0.00 0.00
4:52 pm 16:52 Mostly Cloudy 94 34.4 68 20 43 43 SSW 8 13 29.90 1013 10 16 0.00 0.00
5:20 pm 17:20 Cloudy with Thunderstorms 87 30.6 69 20.6 55 55 S 15 24 29.88 1012 10 16 0.00 0.00
5:42 pm 17:42 Mostly Cloudy with Nearby Thunderstorms 81 27.2 68 20 65 65 SSW 21 33 29.92 1013 10 16 0.00 0.00
5:59 pm 17:59 Windy with Storms Likely 74 23.3 68 20 82 82 W 21 33 29.97 1015 10 16 0.01 0.13
6:52 pm 18:52 Mostly Cloudy with Nearby Thunderstorms 73 22.8 69 20.6 87 87 WSW 12 19 30.00 1016 10 16 0.05 1.27
7:33 pm 19:33 Partly Cloudy with Light Rain 71 21.7 69 20.6 93 93 SW 10 17 29.99 1015 10 16 0.01 0.25
7:40 pm 19:40 Partly Cloudy with Nearby Thunderstorms 72 22.2 70 21.1 93 93 SSW 9 15 30.00 1016 10 16 0.01 0.25
7:52 pm 19:52 Partly Cloudy with Nearby Thunderstorms 72 22.2 70 21.1 93 93 SSW 13 20 29.99 1016 10 16 0.01 0.25
8:26 pm 20:26 Partly Cloudy with Thunderstorms 72 22.2 70 21.1 93 93 S 10 17 30.01 1016 9 14 0.04 1.02
8:41 pm 20:41 Mostly Cloudy with Nearby Thunderstorms 71 21.7 70 21.1 96 96 SSE 10 17 30.01 1016 10 16 0.05 1.27
8:52 pm 20:52 Mostly Cloudy with Light Rain 71 21.7 70 21.1 96 96 SSE 12 19 30.01 1016 10 16 0.06 1.52
9:52 pm 21:52 Partly Cloudy with Light Rain 70 21.1 69 20.6 97 97 SSW 6 9 30.01 1016 10 16 0.07 1.78
10:20 pm 22:20 Mostly Cloudy with Nearby Thunderstorms 71 21.7 69 20.6 93 93 Calm 30.03 1017 10 16 0.01 0.13
10:35 pm 22:35 Mostly Cloudy with Light Rain 72 22.2 69 20.6 91 91 Calm 30.01 1016 7 11 0.03 0.76
10:52 pm 22:52 Mostly Cloudy with Light Rain 72 22.2 69 20.6 91 91 NNE 6 9 30.01 1016 10 16 0.04 1.02
11:52 pm 23:52 Mostly Clear with Light Rain 71 21.7 70 21.1 96 96 NNW 6 9 30.01 1016 10 16 0.01 0.13

Powered by AerisWeather